Location: Az?znagar
(16.8373°N, 80.5091°E)
Time: 12:26:32
(UTC+00:00)

CZ-4C R/B - Pass Details

Date: 04 December 2021
Orbit: 404 x 478 km, 97.7° (Epoch: 26 January)

Event Time Altitude Azimuth Distance (km) Brightness Sun altitude
Rises 00:13:14 0° 155° (SSE) 2,373 7.3 -9.6°
Reaches altitude 10° 00:15:20 10° 147° (SSE) 1,497 6.4 -9.1°
Maximum altitude 00:18:19 37° 77° (ENE) 654 4.3 -8.5°
Drops below altitude 10° 00:21:15 10° 8° (N) 1,471 5.4 -7.8°
Sets 00:23:17 0° 360° (N) 2,325 6.3 -7.4°
